TimeCST,TemperatureF,Dew PointF,Humidity,Sea Level PressureIn,VisibilityMPH,Wind Direction,Wind SpeedMPH,Gust SpeedMPH,PrecipitationIn,Events,Conditions,WindDirDegrees,DateUTC
12:15 AM,32.0,32.0,100,30.05,5.0,Calm,Calm,-,N/A,,Clear,0,2014-03-07 06:15:00
12:35 AM,35.6,33.8,93,30.04,7.0,Calm,Calm,-,N/A,,Clear,0,2014-03-07 06:35:00
12:55 AM,33.8,32.0,93,30.04,7.0,Calm,Calm,-,N/A,,Clear,0,2014-03-07 06:55:00
1:15 AM,33.8,32.0,93,30.05,7.0,Calm,Calm,-,N/A,,Clear,0,2014-03-07 07:15:00
1:35 AM,32.0,32.0,100,30.04,5.0,Calm,Calm,-,N/A,,Clear,0,2014-03-07 07:35:00
1:55 AM,32.0,30.2,93,30.04,2.5,Calm,Calm,-,N/A,,Clear,0,2014-03-07 07:55:00
2:15 AM,32.0,30.2,93,30.03,3.0,Calm,Calm,-,N/A,,Clear,0,2014-03-07 08:15:00
2:35 AM,30.2,28.4,93,30.02,4.0,Calm,Calm,-,N/A,,Clear,0,2014-03-07 08:35:00
2:55 AM,33.8,32.0,93,30.02,4.0,Calm,Calm,-,N/A,,Clear,0,2014-03-07 08:55:00
3:15 AM,33.8,32.0,93,30.02,2.5,Calm,Calm,-,N/A,,Clear,0,2014-03-07 09:15:00
3:35 AM,32.0,32.0,100,30.02,3.0,Calm,Calm,-,N/A,,Clear,0,2014-03-07 09:35:00
3:55 AM,32.0,30.2,93,30.02,1.0,Calm,Calm,-,N/A,,Mist,0,2014-03-07 09:55:00
4:15 AM,30.2,28.4,93,30.02,5.0,Calm,Calm,-,N/A,,Scattered Clouds,0,2014-03-07 10:15:00
4:35 AM,30.2,28.4,93,30.02,5.0,Calm,Calm,-,N/A,,Clear,0,2014-03-07 10:35:00
4:55 AM,32.0,30.2,93,30.02,4.0,Calm,Calm,-,N/A,,Clear,0,2014-03-07 10:55:00
5:15 AM,32.0,30.2,93,30.03,3.0,Calm,Calm,-,N/A,,Clear,0,2014-03-07 11:15:00
5:35 AM,32.0,30.2,93,30.02,4.0,ESE,3.5,-,N/A,,Clear,110,2014-03-07 11:35:00
5:55 AM,32.0,32.0,100,30.02,4.0,Calm,Calm,-,N/A,,Clear,0,2014-03-07 11:55:00
6:15 AM,32.0,32.0,100,30.03,5.0,Calm,Calm,-,N/A,,Clear,0,2014-03-07 12:15:00
6:35 AM,32.0,32.0,100,30.03,4.0,Calm,Calm,-,N/A,,Clear,0,2014-03-07 12:35:00
6:55 AM,32.0,32.0,100,30.02,2.5,Calm,Calm,-,N/A,,Clear,0,2014-03-07 12:55:00
7:15 AM,33.8,32.0,93,30.03,4.0,ESE,3.5,-,N/A,,Clear,120,2014-03-07 13:15:00
7:35 AM,37.4,35.6,93,30.04,4.0,Calm,Calm,-,N/A,,Clear,0,2014-03-07 13:35:00
7:55 AM,41.0,37.4,87,30.05,5.0,SSE,4.6,-,N/A,,Clear,160,2014-03-07 13:55:00
8:15 AM,41.0,37.4,87,30.04,7.0,SSE,4.6,-,N/A,,Clear,150,2014-03-07 14:15:00
8:35 AM,44.6,39.2,81,30.04,7.0,SSE,8.1,-,N/A,,Clear,150,2014-03-07 14:35:00
8:55 AM,46.4,41.0,81,30.04,10.0,SSE,10.4,-,N/A,,Clear,150,2014-03-07 14:55:00
9:15 AM,50.0,37.4,62,30.04,10.0,SSE,13.8,-,N/A,,Unknown,160,2014-03-07 15:15:00
9:35 AM,50.0,37.4,62,30.04,10.0,SSE,10.4,-,N/A,,Unknown,160,2014-03-07 15:35:00
9:55 AM,51.8,35.6,54,30.04,10.0,SSE,11.5,-,N/A,,Unknown,150,2014-03-07 15:55:00
10:15 AM,51.8,37.4,58,30.04,10.0,SSE,10.4,-,N/A,,Clear,160,2014-03-07 16:15:00
10:35 AM,51.8,37.4,58,30.03,10.0,SSE,9.2,-,N/A,,Clear,150,2014-03-07 16:35:00
10:55 AM,55.4,35.6,47,30.03,10.0,South,16.1,19.6,N/A,,Clear,170,2014-03-07 16:55:00
11:15 AM,55.4,33.8,44,30.02,10.0,South,15.0,19.6,N/A,,Unknown,180,2014-03-07 17:15:00
11:35 AM,59.0,35.6,42,30.01,10.0,SSE,13.8,18.4,N/A,,Unknown,160,2014-03-07 17:35:00
11:55 AM,59.0,33.8,39,29.99,10.0,SSE,18.4,26.5,N/A,,Unknown,160,2014-03-07 17:55:00
12:15 PM,59.0,33.8,39,29.99,10.0,South,18.4,23.0,N/A,,Unknown,170,2014-03-07 18:15:00
12:35 PM,59.0,35.6,42,29.97,10.0,South,17.3,24.2,N/A,,Clear,180,2014-03-07 18:35:00
12:55 PM,59.0,35.6,42,29.96,10.0,SSE,17.3,25.3,N/A,,Clear,160,2014-03-07 18:55:00
1:15 PM,60.8,33.8,36,29.93,10.0,SSE,18.4,21.9,N/A,,Clear,150,2014-03-07 19:15:00
1:35 PM,60.8,33.8,36,29.93,10.0,SSE,15.0,23.0,N/A,,Clear,160,2014-03-07 19:35:00
1:55 PM,62.6,33.8,34,29.92,10.0,South,16.1,24.2,N/A,,Clear,170,2014-03-07 19:55:00
2:15 PM,64.4,35.6,34,29.91,10.0,SSE,13.8,19.6,N/A,,Clear,160,2014-03-07 20:15:00
2:35 PM,64.4,33.8,32,29.90,10.0,SSE,13.8,20.7,N/A,,Clear,160,2014-03-07 20:35:00
2:55 PM,64.4,33.8,32,29.89,10.0,South,15.0,20.7,N/A,,Clear,170,2014-03-07 20:55:00
3:15 PM,64.4,33.8,32,29.89,10.0,South,16.1,-,N/A,,Clear,180,2014-03-07 21:15:00
3:35 PM,64.4,33.8,32,29.89,10.0,South,12.7,18.4,N/A,,Clear,170,2014-03-07 21:35:00
3:55 PM,64.4,33.8,32,29.88,10.0,SSE,13.8,-,N/A,,Clear,160,2014-03-07 21:55:00
4:15 PM,64.4,32.0,30,29.88,10.0,South,15.0,-,N/A,,Clear,170,2014-03-07 22:15:00
4:35 PM,64.4,33.8,32,29.88,10.0,SE,13.8,-,N/A,,Clear,140,2014-03-07 22:35:00
4:55 PM,64.4,33.8,32,29.87,10.0,SSE,12.7,-,N/A,,Clear,150,2014-03-07 22:55:00
5:15 PM,62.6,33.8,34,29.87,10.0,SSE,11.5,-,N/A,,Clear,150,2014-03-07 23:15:00
5:35 PM,62.6,33.8,34,29.86,10.0,SSE,10.4,-,N/A,,Clear,150,2014-03-07 23:35:00
5:55 PM,60.8,33.8,36,29.87,10.0,SSE,10.4,-,N/A,,Clear,160,2014-03-07 23:55:00
6:15 PM,59.0,35.6,42,29.86,10.0,SSE,9.2,-,N/A,,Clear,150,2014-03-08 00:15:00
6:35 PM,55.4,35.6,47,29.87,10.0,SSE,6.9,-,N/A,,Clear,150,2014-03-08 00:35:00
6:55 PM,53.6,35.6,51,29.87,10.0,SSE,5.8,-,N/A,,Clear,160,2014-03-08 00:55:00
7:15 PM,50.0,35.6,58,29.88,10.0,SSE,5.8,-,N/A,,Clear,160,2014-03-08 01:15:00
7:35 PM,51.8,35.6,54,29.89,10.0,South,8.1,-,N/A,,Clear,170,2014-03-08 01:35:00
7:55 PM,53.6,35.6,51,29.90,10.0,South,8.1,-,N/A,,Clear,170,2014-03-08 01:55:00
8:15 PM,53.6,35.6,51,29.90,10.0,SSE,8.1,-,N/A,,Clear,160,2014-03-08 02:15:00
8:35 PM,51.8,35.6,54,29.90,10.0,SSE,5.8,-,N/A,,Clear,160,2014-03-08 02:35:00
8:55 PM,50.0,35.6,58,29.91,10.0,SSE,4.6,-,N/A,,Clear,150,2014-03-08 02:55:00
9:15 PM,48.2,35.6,62,29.91,10.0,SE,6.9,-,N/A,,Clear,140,2014-03-08 03:15:00
9:35 PM,46.4,37.4,71,29.91,10.0,SE,8.1,-,N/A,,Clear,140,2014-03-08 03:35:00
9:55 PM,46.4,37.4,71,29.91,10.0,SE,6.9,-,N/A,,Clear,140,2014-03-08 03:55:00
10:15 PM,48.2,39.2,71,29.90,10.0,SE,8.1,-,N/A,,Clear,140,2014-03-08 04:15:00
10:35 PM,50.0,39.2,66,29.90,10.0,SE,6.9,-,N/A,,Clear,140,2014-03-08 04:35:00
10:55 PM,50.0,39.2,66,29.90,10.0,SE,8.1,-,N/A,,Clear,140,2014-03-08 04:55:00
11:15 PM,50.0,41.0,71,29.90,10.0,SSE,6.9,-,N/A,,Clear,150,2014-03-08 05:15:00
11:35 PM,50.0,39.2,66,29.90,10.0,SSE,8.1,-,N/A,,Clear,160,2014-03-08 05:35:00
11:55 PM,50.0,41.0,71,29.91,10.0,SSE,6.9,-,N/A,,Clear,150,2014-03-08 05:55:00